Location: Castillon
(43.0896°N, 0.2156°E)
Time: 09:38:58
(UTC+00:00)

Cosmos 1544 Rocket - Pass Details

Date: 29 October 2021
Orbit: 603 x 631 km, 82.5° (Epoch: 08 December)

Event Time Altitude Azimuth Distance (km) Brightness Sun altitude
Rises 18:44:18 0° 232° (SW) 2,914 7.8 -20.5°
Reaches altitude 10° 18:47:26 10° 256° (WSW) 2,011 7.3 -21.1°
Maximum altitude 18:50:01 15° 291° (WNW) 1,699 6.7 -21.5°
Drops below altitude 10° 18:52:37 10° 327° (NNW) 2,014 6.6 -22.0°
Sets 18:55:45 0° 351° (N) 2,923 7.2 -22.6°
